User: anonymous   Login
Location: Fours
(44.3167°N, 6.7000°E)
Time: 12:20:20
(UTC+00:00)
Language:

Cosmos 1953 - Orbit

View from above orbital plane
View from above orbital plane
View from above satellite
View from above satellite

Ground track
Ground track

The orbit data is extracted from the following two-line orbital elements,

1 19210U 88050A   22019.86769671  .00001635  00000-0  10832-3 0  9990
2 19210  82.5165 205.2355 0012282 293.7695  66.2244 15.06618735809182
Epoch (UTC): 19 January 2022 20:49:28
Eccentricity: 0.0012282
inclination: 82.5165°
perigee height: 538 km
apogee height: 555 km
right ascension of ascending node: 205.2355°
argument of perigee: 293.7695°
revolutions per day: 15.06618735
mean anomaly at epoch: 66.2244°
orbit number at epoch: 80918

The dashed part of the orbit path shows where the satellite is in the earth's shadow,  

DLR